Terminal Aerodrome Forecast
Issued by NWS Brownsville, TX

Home | Current Version | Previous Version | Text Only | Print | Product List | Glossary On
Versions: 1 2 3 4 5 6 7 8 9 10 11 12 13 14 15 16 17 18 19 20 21 22 23 24
638
FTUS44 KBRO 011720
TAFBRO
TAF
KBRO 011720Z 0118/0218 13009KT P6SM BKN024 OVC035
     FM020000 08009KT 5SM BR OVC009
     FM020500 VRB03KT 4SM BR OVC004
     FM020900 01004KT 4SM BR OVC009
     FM021400 36007KT 6SM HZ OVC003=

USA.gov is the U.S. government's official web portal to all federal, state and local government web resources and services.